Regional Weather Roundup
Issued by NWS Cleveland, OH

Home | Current Version | Previous Version | Graphics & Text | Print | Product List | Glossary On
Versions: 1 2 3 4 5 6 7 8 9 10 11 12 13 14 15 16 17 18 19 20 21 22 23 24 25 26 27 28 29 30 31 32 33 34 35 36 37 38 39 40 41 42 43 44 45 46 47 48 49 50
000
ASUS41 KCLE 250010
RWRCLE
OHIO REGIONAL WEATHER ROUNDUP
NATIONAL WEATHER SERVICE WILMINGTON, OH
800 PM EDT SUN MAY 24 2015

NOTE: "FAIR" INDICATES FEW OR NO CLOUDS BELOW 12,000 FEET WITH NO
SIGNIFICANT WEATHER AND/OR OBSTRUCTIONS TO VISIBILITY.

OHZ001>008-015>018-024>027-034-035-043-044-250100-
   NORTHWEST OHIO

CITY           SKY/WX    TMP DP  RH WIND       PRES   REMARKS
DEFIANCE       CLEAR     81  52  36 S9        30.07F
FINDLAY        CLEAR     79  51  37 S9        30.09F
TOLEDO EXPRESS MOCLDY    79  51  37 S6        30.08F
TOLEDO EXEC    MOCLDY    80  53  39 S7        30.09F
LIMA           CLEAR     80  50  34 S12       30.10S
$$

OHZ009>014-019>023-028>033-038-089-250100-
   NORTHEAST OHIO

CITY           SKY/WX    TMP DP  RH WIND       PRES   REMARKS
CLE-HOPKINS    MOCLDY    76  50  40 SE8       30.16F
CLE-LAKEFRONT  CLOUDY    78  43  28 SE8       30.14F
CUY CO. ARPT   CLOUDY    75  48  38 SE8       30.18F
LORAIN-ELYRIA  MOCLDY    77  51  40 S9        30.15S
ASHTABULA      CLOUDY    70  54  56 CALM      30.19F
AKRON-CANTON   PTCLDY    75  50  41 S8        30.19F
WOOSTER        CLEAR     76  50  40 S9        30.18F
MANSFIELD      CLEAR     76  53  44 SE9       30.16F
YOUNGSTOWN     CLOUDY    71  48  43 SE3       30.20F
$$

OHZ042-051>053-060>062-070>072-077>081-250100-
  SOUTHWEST OHIO

CITY           SKY/WX    TMP DP  RH WIND       PRES   REMARKS
CINC-COVINGTON PTCLDY    78  53  41 S13       30.12S
CINC-LUNKEN    CLEAR     79  51  37 S9        30.11F
HAMILTON       CLEAR     81  52  36 S8        30.11S
DAYTON         MOCLDY    80  51  36 S13       30.12F
WRIGHT-PAT AFB CLEAR     80  49  33 S12       30.11F
DAYTON GENERAL CLEAR     77  51  40 S9        30.11F
WILMINGTON     CLEAR     79  47  32 S12       30.13F
$$

OHZ036-037-039>041-045>050-054>059-063>069-073>076-082>088-250100-
  CENTRAL AND SOUTHEAST OHIO

CITY           SKY/WX    TMP DP  RH WIND       PRES   REMARKS
COLUMBUS       PTCLDY    80  52  37 S9        30.14F
OSU AIRPORT    PTCLDY    79  51  37 S12       30.13F
BOLTON FIELD   NOT AVBL
RICKENBACK AFB PTCLDY    78  52  39 S9        30.13F
NEWARK         CLEAR     79  53  40 S7        30.14F
MARION         CLEAR     79  49  34 S12       30.13F
LANCASTER      CLEAR     79  53  40 S9        30.15F
ZANESVILLE     CLEAR     76  53  44 S7        30.17F
NEW PHILLY     PTCLDY    80  52  37 SE3       30.18F
$$



USA.gov is the U.S. government's official web portal to all federal, state and local government web resources and services.